sat.trackr.live / text

‹ back to catalog

STARLINK-4117

NORAD 53169 · 2022-083AP

PAYLOAD ACTIVE UNKNOWN

§ Identity

Operator
Country
US
Launch date
2022-07-17
Launch site
AFETR
Launch vehicle
Mass (kg)
RCS (m²)

Purposes: comms

External: N2YO · Heavens-Above · Gunter

§ Orbital elements

Epoch: 2026-09-20T05:15:23.086080Z

Period
94.01 min
Inclination
53.1610°
Eccentricity
0.0001099
Mean motion
15.31696779 rev/d
Perigee alt
470.0 km
Apogee alt
471.5 km
Semi-major
6,848.9 km
B*
-2.6659e-6
RAAN
344.1263°
Arg perigee
91.4242°
Mean anomaly
268.6885°
Rev number
23,108

§ Raw data

STARLINK-41171 53169U 22083AP  26263.21901720 -.00000448  00000+0 -26659-5 0  99902 53169  53.1610 344.1263 0001099  91.4242 268.6885 15.31696779231087

JSON: /api/v1/satellites/53169 · /tle

For live sub-satellite position, see the globe view (requires WebGL).

§ Visibility from observer

Set your observer location to see the next 7 days of passes ≥ 10°. The values pass through the URL so the page stays shareable.

No JS? Fill the form by hand. The geolocation button needs JavaScript.